Location: *
(51.5000°N, 0.1100°W)
Time: 19:43:02
(UTC+00:00)

SL-27 R/B - Pass Details

Date: 25 May 2024
Orbit: 329 x 353 km, 74.7° (Epoch: 16 June)

Event Time Altitude Azimuth Distance (km) Brightness Sun altitude
Exits shadow 02:00:09 19° 165° (SSE) 887 3.5 -12.7°
Maximum altitude 02:01:43 36° 108° (ESE) 553 2.9 -12.5°
Drops below altitude 10° 02:04:17 10° 39° (NE) 1,270 6.2 -12.3°
Sets 02:06:19 0° 30° (NNE) 2,113 8.0 -12.2°
